| time (UTC) | temp F | wind direction | speed MPH | gust MPH | rain 1hr in | rain 24hr in | rain mn in | humidity % | barometer mb |
| 20260509233032 | 79 | 275 | 4.0 | 6.0 | 0.00 | 0.00 | 0.00 | 40 | 1012.2 |
| 20260509232025 | 77 | 345 | 5.0 | 8.0 | 0.00 | 0.00 | 0.00 | 41 | 1012.2 |
| 20260509231032 | 78 | 39 | 7.0 | 8.0 | 0.00 | 0.00 | 0.00 | 42 | 1012.2 |
| 20260509230019 | 79 | 279 | 3.0 | 4.0 | 0.00 | 0.00 | 0.00 | 40 | 1012.2 |
| 20260509225029 | 78 | 29 | 4.0 | 7.0 | 0.00 | 0.00 | 0.00 | 42 | 1013.2 |
| 20260509224020 | 78 | 304 | 6.0 | 8.0 | 0.00 | 0.00 | 0.00 | 41 | 1013.2 |
| 20260509223024 | 79 | 298 | 5.0 | 8.0 | 0.00 | 0.00 | 0.00 | 43 | 1013.2 |
| 20260509222035 | 78 | 275 | 5.0 | 7.0 | 0.00 | 0.00 | 0.00 | 43 | 1013.2 |
| 20260509221021 | 78 | 280 | 5.0 | 8.0 | 0.00 | 0.00 | 0.00 | 45 | 1013.2 |
| 20260509220032 | 78 | 279 | 3.0 | 5.0 | 0.00 | 0.00 | 0.00 | 45 | 1013.2 |
| 20260509215019 | 78 | 257 | 6.0 | 9.0 | 0.00 | 0.00 | 0.00 | 45 | 1014.2 |
| 20260509214021 | 78 | 268 | 4.0 | 7.0 | 0.00 | 0.00 | 0.00 | 45 | 1014.2 |
| 20260509213035 | 77 | 258 | 3.0 | 7.0 | 0.00 | 0.00 | 0.00 | 45 | 1014.2 |
| 20260509212042 | 78 | 311 | 4.0 | 6.0 | 0.00 | 0.00 | 0.00 | 43 | 1014.2 |
| 20260509211032 | 77 | 268 | 4.0 | 6.0 | 0.00 | 0.00 | 0.00 | 45 | 1014.2 |
| 20260509210024 | 76 | 344 | 5.0 | 8.0 | 0.00 | 0.00 | 0.00 | 45 | 1014.2 |
| 20260509205031 | 75 | 324 | 5.0 | 8.0 | 0.00 | 0.00 | 0.00 | 46 | 1014.2 |
| 20260509204042 | 75 | 283 | 5.0 | 8.0 | 0.00 | 0.00 | 0.00 | 48 | 1014.2 |
| 20260509203027 | 75 | 256 | 4.0 | 8.0 | 0.00 | 0.00 | 0.00 | 47 | 1014.2 |
| 20260509202055 | 74 | 280 | 5.0 | 7.0 | 0.00 | 0.00 | 0.00 | 50 | 1015.2 |
| 20260509201044 | 74 | 242 | 8.0 | 10.0 | 0.00 | 0.00 | 0.00 | 51 | 1015.2 |
| 20260509200241 | 72 | 239 | 3.0 | 4.0 | 0.00 | 0.00 | 0.00 | 55 | |
| 20260509195230 | 73 | 250 | 6.0 | 8.0 | 0.00 | 0.00 | 0.00 | 53 | 1015.2 |
| 20260509194043 | 73 | 237 | 6.0 | 9.0 | 0.00 | 0.00 | 0.00 | 54 | 1015.2 |
| 20260509193037 | 71 | 260 | 6.0 | 10.0 | 0.00 | 0.00 | 0.00 | 57 | 1015.2 |
| 20260509192026 | 71 | 269 | 4.0 | 8.0 | 0.00 | 0.00 | 0.00 | 58 | 1015.2 |
| 20260509191034 | 71 | 291 | 5.0 | 9.0 | 0.00 | 0.00 | 0.00 | 58 | 1016.0 |
| 20260509190104 | 70 | 297 | 5.0 | 9.0 | 0.00 | 0.00 | 0.00 | 59 | 1016.2 |
| 20260509185034 | 71 | 259 | 8.0 | 13.0 | 0.00 | 0.00 | 0.00 | 60 | 1016.2 |
| 20260509184021 | 71 | 248 | 7.0 | 9.0 | 0.00 | 0.00 | 0.00 | 59 | 1016.2 |
| 20260509183028 | 71 | 275 | 5.0 | 9.0 | 0.00 | 0.00 | 0.00 | 58 | 1016.2 |
| 20260509182056 | 70 | 293 | 5.0 | 9.0 | 0.00 | 0.00 | 0.00 | 59 | 1016.2 |
| 20260509181043 | 68 | 318 | 5.0 | 6.0 | 0.00 | 0.00 | 0.00 | 62 | 1016.2 |
| 20260509180708 | 69 | 23 | 4.0 | 5.0 | 0.00 | 0.00 | 0.00 | 61 | |
| 20260509175023 | 68 | 331 | 6.0 | 9.0 | 0.00 | 0.00 | 0.00 | 63 | 1016.2 |
| 20260509174258 | 67 | 5.0 | 5.0 | 0.00 | 0.00 | 0.00 | 64 | 1016.2 | |
| 20260509173621 | 67 | 30 | 5.0 | 8.0 | 0.00 | 0.00 | 0.00 | 65 | 1016.2 |
| 20260509172027 | 66 | 318 | 4.0 | 6.0 | 0.00 | 0.00 | 0.00 | 67 | 1016.2 |
| 20260509171034 | 64 | 360 | 6.0 | 8.0 | 0.00 | 0.00 | 0.00 | 70 | 1017.0 |
| 20260509170025 | 64 | 6 | 5.0 | 7.0 | 0.00 | 0.00 | 0.00 | 69 | 1017.2 |
| 20260509165032 | 63 | 2 | 4.0 | 7.0 | 0.00 | 0.00 | 0.00 | 71 | 1017.2 |
| 20260509164042 | 63 | 333 | 5.0 | 7.0 | 0.00 | 0.00 | 0.00 | 71 | 1017.2 |
| 20260509163029 | 62 | 335 | 4.0 | 6.0 | 0.00 | 0.00 | 0.00 | 74 | 1017.2 |
| 20260509162019 | 61 | 251 | 3.0 | 5.0 | 0.00 | 0.00 | 0.00 | 77 | 1017.2 |
| 20260509161026 | 60 | 294 | 4.0 | 7.0 | 0.00 | 0.00 | 0.00 | 78 | 1017.2 |
| 20260509160114 | 59 | 299 | 3.0 | 6.0 | 0.00 | 0.00 | 0.00 | 80 | 1017.2 |
| 20260509155025 | 58 | 323 | 5.0 | 8.0 | 0.00 | 0.00 | 0.00 | 81 | 1017.2 |
| 20260509154107 | 58 | 329 | 4.0 | 7.0 | 0.00 | 0.00 | 0.00 | 81 | 1017.9 |
| 20260509153022 | 58 | 320 | 4.0 | 6.0 | 0.00 | 0.00 | 0.00 | 82 | 1018.1 |
| 20260509152030 | 57 | 313 | 3.0 | 4.0 | 0.00 | 0.00 | 0.00 | 83 | 1018.1 |
| 20260509151037 | 56 | 12 | 4.0 | 5.0 | 0.00 | 0.00 | 0.00 | 84 | 1018.1 |
| 20260509150027 | 56 | 293 | 2.0 | 3.0 | 0.00 | 0.00 | 0.00 | 85 | 1018.2 |
| 20260509145055 | 55 | 333 | 2.0 | 4.0 | 0.00 | 0.00 | 0.00 | 86 | 1018.2 |
| 20260509144024 | 54 | 344 | 2.0 | 3.0 | 0.00 | 0.00 | 0.00 | 88 | 1018.1 |
| 20260509143032 | 54 | 18 | 2.0 | 4.0 | 0.00 | 0.00 | 0.00 | 89 | 1018.2 |
| 20260509142025 | 53 | 25 | 4.0 | 4.0 | 0.00 | 0.00 | 0.00 | 89 | 1018.1 |
| 20260509141029 | 52 | 334 | 2.0 | 3.0 | 0.00 | 0.00 | 0.00 | 92 | 1017.3 |
| 20260509140019 | 52 | 43 | 1.0 | 3.0 | 0.00 | 0.00 | 0.00 | 93 | 1017.1 |
| 20260509135027 | 49 | 0.0 | 0.0 | 0.00 | 0.00 | 0.00 | 99 | 1017.1 | |
| 20260509134049 | 48 | 0.0 | 0.0 | 0.00 | 0.00 | 0.00 | 99 | 1017.1 | |
| 20260509133019 | 47 | 0.0 | 0.0 | 0.00 | 0.00 | 0.00 | 99 | 1017.1 | |
| 20260509132032 | 45 | 0.0 | 0.0 | 0.00 | 0.00 | 0.00 | 99 | 1017.1 | |
| 20260509131024 | 45 | 0.0 | 0.0 | 0.00 | 0.00 | 0.00 | 99 | 1017.1 | |
| 20260509130032 | 45 | 0.0 | 0.0 | 0.00 | 0.00 | 0.00 | 99 | 1017.1 | |
| 20260509125019 | 45 | 0.0 | 0.0 | 0.00 | 0.00 | 0.00 | 99 | 1017.1 | |
| 20260509124030 | 45 | 0.0 | 0.0 | 0.00 | 0.00 | 0.00 | 99 | 1017.1 | |
| 20260509123020 | 46 | 0.0 | 0.0 | 0.00 | 0.00 | 0.00 | 99 | 1017.1 | |
| 20260509122025 | 46 | 0.0 | 0.0 | 0.00 | 0.00 | 0.00 | 99 | 1017.1 | |
| 20260509121033 | 46 | 0.0 | 0.0 | 0.00 | 0.00 | 0.00 | 99 | 1017.9 | |
| 20260509120044 | 47 | 90 | 0.0 | 1.0 | 0.00 | 0.00 | 0.00 | 99 | 1018.1 |
| 20260509115035 | 47 | 0.0 | 0.0 | 0.00 | 0.00 | 0.00 | 99 | 1017.1 | |
| 20260509114020 | 47 | 0.0 | 0.0 | 0.00 | 0.00 | 0.00 | 99 | 1017.1 | |
| 20260509113021 | 48 | 0.0 | 0.0 | 0.00 | 0.00 | 0.00 | 99 | 1017.1 | |
| 20260509112036 | 48 | 0.0 | 0.0 | 0.00 | 0.00 | 0.00 | 99 | 1017.1 | |
| 20260509111025 | 48 | 0.0 | 0.0 | 0.00 | 0.00 | 0.00 | 99 | 1017.9 | |
| 20260509110033 | 48 | 0.0 | 2.0 | 0.00 | 0.00 | 0.00 | 99 | 1018.1 | |
| 20260509105023 | 48 | 230 | 1.0 | 2.0 | 0.00 | 0.00 | 0.00 | 99 | 1018.1 |
| 20260509104032 | 48 | 231 | 2.0 | 2.0 | 0.00 | 0.00 | 0.00 | 99 | 1018.1 |
| 20260509103022 | 48 | 248 | 0.0 | 1.0 | 0.00 | 0.00 | 0.00 | 99 | 1018.1 |
| 20260509102028 | 48 | 248 | 0.0 | 2.0 | 0.00 | 0.00 | 0.00 | 99 | 1018.1 |
| 20260509101037 | 49 | 260 | 1.0 | 3.0 | 0.00 | 0.00 | 0.00 | 99 | 1018.1 |
| 20260509100026 | 49 | 0.0 | 0.0 | 0.00 | 0.00 | 0.00 | 99 | 1018.1 | |
| 20260509095034 | 49 | 248 | 1.0 | 2.0 | 0.00 | 0.00 | 0.00 | 99 | 1018.1 |
| 20260509094023 | 48 | 248 | 1.0 | 3.0 | 0.00 | 0.00 | 0.00 | 98 | 1018.1 |
| 20260509093023 | 48 | 0.0 | 0.0 | 0.00 | 0.00 | 0.00 | 98 | 1018.1 | |
| 20260509092021 | 49 | 0.0 | 0.0 | 0.00 | 0.00 | 0.00 | 98 | 1018.1 | |
| 20260509091028 | 49 | 270 | 0.0 | 1.0 | 0.00 | 0.00 | 0.00 | 97 | 1018.1 |
| 20260509090037 | 49 | 270 | 0.0 | 2.0 | 0.00 | 0.00 | 0.00 | 97 | 1018.1 |
| 20260509085026 | 49 | 0.0 | 0.0 | 0.00 | 0.00 | 0.00 | 96 | 1018.1 | |
| 20260509084034 | 50 | 0.0 | 1.0 | 0.00 | 0.00 | 0.00 | 95 | 1018.1 | |
| 20260509083025 | 50 | 270 | 1.0 | 2.0 | 0.00 | 0.00 | 0.00 | 94 | 1018.1 |
| 20260509082032 | 51 | 0 | 0.0 | 3.0 | 0.00 | 0.00 | 0.00 | 94 | 1018.1 |
| 20260509081021 | 51 | 0.0 | 0.0 | 0.00 | 0.00 | 0.00 | 93 | 1018.1 | |
| 20260509080029 | 52 | 0.0 | 0.0 | 0.00 | 0.00 | 0.00 | 92 | 1018.1 | |
| 20260509075040 | 52 | 0.0 | 0.0 | 0.00 | 0.00 | 0.00 | 92 | 1018.1 | |
| 20260509074027 | 52 | 0.0 | 0.0 | 0.00 | 0.00 | 0.00 | 91 | 1018.1 | |
| 20260509073025 | 53 | 0.0 | 0.0 | 0.00 | 0.00 | 0.00 | 90 | 1018.1 | |
| 20260509072025 | 53 | 0.0 | 0.0 | 0.00 | 0.00 | 0.00 | 88 | 1018.1 | |
| 20260509071033 | 54 | 221 | 2.0 | 3.0 | 0.00 | 0.00 | 0.00 | 88 | 1018.1 |
| 20260509070045 | 54 | 237 | 2.0 | 3.0 | 0.00 | 0.00 | 0.00 | 86 | 1018.1 |
| 20260509065030 | 55 | 223 | 3.0 | 4.0 | 0.00 | 0.00 | 0.00 | 86 | 1018.1 |
| 20260509064019 | 55 | 190 | 2.0 | 3.0 | 0.00 | 0.00 | 0.00 | 85 | 1018.1 |
| 20260509063027 | 55 | 223 | 3.0 | 5.0 | 0.00 | 0.00 | 0.00 | 84 | 1018.1 |
| 20260509062113 | 56 | 213 | 4.0 | 5.0 | 0.00 | 0.00 | 0.00 | 84 | 1018.1 |
| 20260509061024 | 56 | 201 | 4.0 | 5.0 | 0.00 | 0.00 | 0.00 | 83 | 1018.1 |
| 20260509060033 | 56 | 201 | 4.0 | 6.0 | 0.00 | 0.00 | 0.00 | 82 | 1018.1 |
| 20260509055041 | 57 | 210 | 5.0 | 7.0 | 0.00 | 0.00 | 0.00 | 82 | 1018.1 |
| 20260509054029 | 57 | 209 | 6.0 | 8.0 | 0.00 | 0.00 | 0.00 | 81 | 1018.1 |
| 20260509053019 | 57 | 210 | 6.0 | 10.0 | 0.00 | 0.00 | 0.00 | 80 | 1018.1 |
| 20260509052027 | 58 | 208 | 6.0 | 8.0 | 0.00 | 0.00 | 0.00 | 80 | 1018.1 |
| 20260509051054 | 58 | 193 | 5.0 | 7.0 | 0.00 | 0.00 | 0.00 | 79 | 1018.1 |
| 20260509050025 | 59 | 191 | 6.0 | 7.0 | 0.00 | 0.00 | 0.00 | 78 | 1018.1 |
| 20260509045050 | 59 | 231 | 4.0 | 6.0 | 0.00 | 0.00 | 0.00 | 78 | 1018.1 |
| 20260509044040 | 59 | 212 | 3.0 | 5.0 | 0.00 | 0.00 | 0.00 | 77 | 1018.1 |
| 20260509043029 | 60 | 240 | 4.0 | 6.0 | 0.00 | 0.00 | 0.00 | 76 | 1018.1 |
| 20260509042037 | 60 | 224 | 4.0 | 5.0 | 0.00 | 0.00 | 0.00 | 75 | 1018.1 |
| 20260509041026 | 61 | 220 | 4.0 | 7.0 | 0.00 | 0.00 | 0.00 | 74 | 1018.1 |
| 20260509040034 | 61 | 235 | 4.0 | 6.0 | 0.00 | 0.00 | 0.00 | 73 | 1018.1 |
| 20260509035023 | 62 | 238 | 4.0 | 6.0 | 0.00 | 0.00 | 0.00 | 72 | 1018.1 |
| 20260509034032 | 62 | 229 | 5.0 | 7.0 | 0.00 | 0.00 | 0.00 | 71 | 1018.1 |
| 20260509033020 | 63 | 222 | 6.0 | 9.0 | 0.00 | 0.00 | 0.00 | 69 | 1018.1 |
| 20260509032019 | 64 | 240 | 7.0 | 11.0 | 0.00 | 0.00 | 0.00 | 68 | 1018.1 |
| 20260509031036 | 64 | 209 | 6.0 | 7.0 | 0.00 | 0.00 | 0.00 | 66 | 1017.4 |
| 20260509030026 | 66 | 221 | 7.0 | 11.0 | 0.00 | 0.00 | 0.00 | 64 | 1017.1 |
| 20260509025033 | 67 | 221 | 6.0 | 8.0 | 0.00 | 0.00 | 0.00 | 61 | 1017.1 |
| 20260509024043 | 67 | 231 | 6.0 | 8.0 | 0.00 | 0.00 | 0.00 | 60 | 1017.1 |
| 20260509023031 | 68 | 236 | 5.0 | 7.0 | 0.00 | 0.00 | 0.00 | 57 | 1017.2 |
| 20260509022040 | 68 | 232 | 6.0 | 8.0 | 0.00 | 0.00 | 0.00 | 57 | 1017.2 |
| 20260509021028 | 69 | 210 | 4.0 | 7.0 | 0.00 | 0.00 | 0.00 | 56 | 1017.1 |
| 20260509020036 | 68 | 210 | 5.0 | 7.0 | 0.00 | 0.00 | 0.00 | 56 | 1017.1 |
| 20260509015045 | 69 | 222 | 3.0 | 4.0 | 0.00 | 0.00 | 0.00 | 55 | 1017.1 |
| 20260509014033 | 69 | 12 | 1.0 | 4.0 | 0.00 | 0.00 | 0.00 | 54 | 1017.1 |
| 20260509013023 | 70 | 219 | 5.0 | 7.0 | 0.00 | 0.00 | 0.00 | 54 | 1017.1 |
| 20260509012021 | 69 | 218 | 7.0 | 8.0 | 0.00 | 0.00 | 0.00 | 54 | 1018.1 |
| 20260509011019 | 70 | 230 | 5.0 | 9.0 | 0.00 | 0.00 | 0.00 | 53 | 1018.1 |
| 20260509010033 | 69 | 136 | 3.0 | 5.0 | 0.00 | 0.00 | 0.00 | 54 | 1018.1 |
| 20260509005035 | 69 | 184 | 3.0 | 5.0 | 0.00 | 0.00 | 0.00 | 54 | 1018.1 |
| 20260509004025 | 69 | 224 | 6.0 | 9.0 | 0.00 | 0.00 | 0.00 | 54 | 1018.1 |
| 20260509003033 | 69 | 203 | 6.0 | 8.0 | 0.00 | 0.00 | 0.00 | 54 | 1018.1 |
| 20260509002024 | 70 | 227 | 6.0 | 9.0 | 0.00 | 0.00 | 0.00 | 53 | 1018.1 |
| 20260509001033 | 68 | 180 | 4.0 | 8.0 | 0.00 | 0.00 | 0.00 | 54 | 1018.1 |
| 20260509000019 | 69 | 238 | 8.0 | 11.0 | 0.00 | 0.00 | 0.00 | 53 | 1018.1 |
| 20260508235027 | 69 | 222 | 7.0 | 10.0 | 0.00 | 0.00 | 0.00 | 53 | 1018.1 |
| 20260508234055 | 69 | 231 | 6.0 | 8.0 | 0.00 | 0.00 | 0.00 | 52 | 1018.1 |